Flag for U.S.A. Weather past 2 weeks in West Palm Beach, Florida, U.S.A.

81 °F

Scattered clouds.

Feels Like: 86 °F
Forecast: 75 / 86 °F
Wind: No wind

Location: Palm Beach International Airport

Current Time: Oct 9, 2015 at 10:26:16 AM

Latest Report: Oct 9, 2015 at 9:53 AM

Visibility: 10 mi

Pressure: 30.06 "Hg

Humidity: 79%

Dew point: 74 °F

Location of West Palm BeachLocation

Historic Weather in West Palm Beach — Graph


West Palm Beach temperature yesterday

Maximum temperature yesterday: 84 °F (at 10:53 AM)
Minimum temperature yesterday: 73 °F (at 1:53 AM)
Average temperature yesterday: 78 °F

Past Weeks' High & Low Weather Summary

High90 °F (Sep 30, 3:53 PM)100% (Sep 30, 7:53 AM)30.04 "Hg (Sep 30, 7:53 AM)
Low68 °F (Oct 4, 3:53 AM)49% (Oct 3, 3:53 PM)29.50 "Hg (Oct 2, 3:53 PM)
Average80 °F79%29.83 "Hg
* Reported Sep 24 8:53 AM — Oct 9 8:53 AM, West Palm Beach, Weather by CustomWeather, © 2015

Note: Actual official high and low records may vary slightly from our data, if they occured in-between our weather recording intervals... More about our weather records


West Palm Beach weather history for previous 24 hours

Time TempWeatherWind HumidityBarometerVisibility
8:53 AM
Fri, Oct 9
78 °FScattered clouds.5 mph87%30.03 "Hg10 mi
7:53 AM74 °FPassing clouds.5 mph94%30.02 "Hg10 mi
6:53 AM73 °FPassing clouds.No wind97%30.01 "Hg10 mi
5:53 AM73 °FPassing clouds.No wind97%29.99 "Hg10 mi
4:53 AM74 °FPassing clouds.3 mph94%29.98 "Hg10 mi
3:53 AM74 °FPassing clouds.3 mph97%29.98 "Hg10 mi
2:53 AM75 °FPassing clouds.No wind94%29.99 "Hg10 mi
1:53 AM75 °FPassing clouds.3 mph94%30.00 "Hg10 mi
12:53 AM75 °FPassing clouds.3 mph94%30.01 "Hg10 mi
11:53 PM
Thu, Oct 8
75 °FPassing clouds.3 mph90%30.03 "Hg10 mi
10:53 PM77 °FPassing clouds.5 mph88%30.04 "Hg10 mi
9:53 PM76 °FPassing clouds.6 mph91%30.03 "Hg10 mi
8:53 PM79 °FPassing clouds.No wind79%30.01 "Hg10 mi
7:53 PM80 °FScattered clouds.6 mph79%29.99 "Hg10 mi
6:53 PM81 °FScattered clouds.10 mph74%29.98 "Hg10 mi
5:53 PM82 °FScattered clouds.9 mph72%29.97 "Hg10 mi
4:53 PM84 °FScattered clouds.10 mph65%29.96 "Hg10 mi
3:53 PM84 °FScattered clouds.9 mph67%29.96 "Hg10 mi
2:53 PM84 °FBroken clouds.8 mph70%29.97 "Hg10 mi
1:53 PM83 °FBroken clouds.7 mph70%29.99 "Hg10 mi
1:02 PM78 °FRain. Fog.15 mph87%30.02 "Hg2 mi
12:53 PM78 °FPartly sunny.10 mph82%30.02 "Hg7 mi
11:53 AM83 °FBroken clouds.No wind68%30.03 "Hg10 mi
10:53 AM84 °FBroken clouds.No wind67%30.03 "Hg10 mi
Weather by CustomWeather, © 2015

See weather overviewHow to use our weather pages